This is the latest recevied weather packets stored in our database for station/object NQ9F. If no packets are shown the sender has not sent any weather packets the latest 10 day(s).
| Time | Temp. | Humidity | Pressure | Rain* | Wind** | Luminosity | Snow |
|---|---|---|---|---|---|---|---|
| 1777747151 | 21.67° C | 43% | 1021.7 hPa | 0 mm | - | 609 W/m² | - |
| 1777746542 | 21.11° C | 45% | 1021.7 hPa | 0 mm | - | 1006 W/m² | - |
| 1777746238 | 21.11° C | 45% | 1021.8 hPa | 0 mm | - | 156 W/m² | - |
| 1777745934 | 22.78° C | 43% | 1021.7 hPa | 0 mm | - | 129 W/m² | - |
| 1777745332 | 21.11° C | 41% | 1021.6 hPa | 0 mm | - | 634 W/m² | - |
| 1777744724 | 21.11° C | 42% | 1021.9 hPa | 0 mm | - | 108 W/m² | - |
| 1777744424 | 20.56° C | 42% | 1022.2 hPa | 0 mm | - | 154 W/m² | - |
| 1777743515 | 21.11° C | 44% | 1022.6 hPa | 0 mm | - | 939 W/m² | - |
| 1777743213 | 21.11° C | 42% | 1022.5 hPa | 0 mm | - | 932 W/m² | - |
| 1777742910 | 20.56° C | 44% | 1022.6 hPa | 0 mm | - | 929 W/m² | - |
| 1777742303 | 20.56° C | 43% | 1022.9 hPa | 0 mm | - | 914 W/m² | - |
| 1777741696 | 21.11° C | 42% | 1022.7 hPa | 0 mm | - | 896 W/m² | - |
| 1777740786 | 20.56° C | 46% | 1022.9 hPa | 0 mm | - | 871 W/m² | - |
| 1777739870 | 21.11° C | 43% | 1023 hPa | 0 mm | - | 844 W/m² | - |
| 1777739264 | 20° C | 49% | 1023 hPa | 0 mm | - | 821 W/m² | - |
| 1777738658 | 20° C | 44% | 1023 hPa | 0 mm | - | 794 W/m² | - |
| 1777738052 | 19.44° C | 50% | 1022.5 hPa | 0 mm | - | 768 W/m² | - |
| 1777737751 | 20° C | 51% | 1022.7 hPa | 0 mm | - | 754 W/m² | - |
| 1777737449 | 18.89° C | 53% | 1022.6 hPa | 0 mm | - | 731 W/m² | - |
| 1777737140 | 19.44° C | 50% | 1022.6 hPa | 0 mm | - | 713 W/m² | - |
| 1777736836 | 19.44° C | 59% | 1022.6 hPa | 0 mm | - | 703 W/m² | - |
| 1777736217 | 18.89° C | 61% | 1022.5 hPa | 0 mm | - | 662 W/m² | - |
| 1777735914 | 18.89° C | 59% | 1022.9 hPa | 0 mm | - | 640 W/m² | - |
| 1777735611 | 18.33° C | 64% | 1022.5 hPa | 0 mm | - | 626 W/m² | - |
| 1777735309 | 18.33° C | 67% | 1022.6 hPa | 0 mm | - | 610 W/m² | - |
* Rain latest hour (hover to see other rain measurements)
** Current wind speed in m/s (hover to see current wind gust speed)